Вернуться в каталог

STARLINK-36166

АктивенСвязьVLEO
NORAD 67084·PAYLOAD·🇺🇸 United States

Запущен Dec 14, 2025 с Vandenberg Space Force Base

Loading…

Ближайшие Пролёты (ближайшие 24 часа)

TLE

СвежийSource: CelesTrak SupGP

Эпоха: Sep 14, 2026, 22:07 UTC

1 67084C 25298K   26257.92201389  .00050956  00000+0  42691-2 0  2572
2 67084  69.9992 257.4798 0003916 270.1359 275.4271 14.98313546    12

Отслеживайте STARLINK-36166 в реальном времени с AllMySat

Download on the App Store